Hourly Data Report for April 25, 2018

KUGAARUK CLIMATE
NUNAVUT
Current Station Operator: ECCC - MSC

68°32'15.060" N
89°47'47.020" W
15.80 m
2303094
71407
NBB

Download Data

Hourly Data (April 2018)
Hourly Data Report for April 25, 2018
TIME
LST
Temp Definition
°C
Dew Point Definition
°C
Rel Hum Definition
%
Precip. Amount Definition
mm

Wind Dir Definition
10's deg

Wind Spd Definition
km/h
Visibility Definition
km
Stn Press Definition
kPa
Hmdx Definition


Wind Chill Definition


Weather Definition


00:00 -22.7 -25.5 78 0.0 26 12   100.76   -31 LegendNANA
01:00 -23.7 -26.4 78 0.0 24 10   100.75   -32 LegendNANA
02:00 -25.2 -28.0 78 0.2 3 2   100.75   -27 LegendNANA
03:00 -25.9 -28.6 78 0.0 3 2   100.76   -28 LegendNANA
04:00 -27.4 -30.6 74 0.0 8 8   100.80   -35 LegendNANA
05:00 -27.0 -31.2 67 0.0 7 3   100.85   -30 LegendNANA
06:00 -26.7 -31.4 64 0.0 7 1   100.88   -28 LegendNANA
07:00 -24.2 -28.0 71 0.0 6 5   100.90   -29 LegendNANA
08:00 -22.8 -28.6 59 0.0 6 2   100.94   -25 LegendNANA
09:00 -23.1 -28.8 59 0.0 7 4   100.97   -27 LegendNANA
10:00 -21.4 -30.5 44 0.0 0 1   101.00   -22 LegendNANA
11:00 -20.8 -26.1 62 0.0 2 10   101.03   -28 LegendNANA
12:00 -19.9 -27.1 53 0.0 20 4   101.08   -23 LegendNANA
13:00 -19.6 -25.2 61 0.0 1 14   101.09   -28 LegendNANA
14:00 -19.4 -24.7 63 0.0 36 13   101.14   -28 LegendNANA
15:00 -19.0 -24.6 61 0.0 35 12   101.16   -27 LegendNANA
16:00 -19.5 -24.8 63 0.0 34 13   101.17   -28 LegendNANA
17:00 -20.2 -25.1 65 0.0 34 10   101.20   -27 LegendNANA
18:00 -20.7 -24.8 69 0.0 32 13   101.22   -29 LegendNANA
19:00 -21.8 -25.3 73 0.0 33 14   101.20   -31 LegendNANA
20:00 -23.3 -26.4 75 0.0 24 5   101.22   -28 LegendNANA
21:00 -25.0 -27.7 78 0.0 24 11   101.22   -34 LegendNANA
22:00 -26.5 -29.3 77 0.0 25 9   101.23   -34 LegendNANA
23:00 -26.7 -29.4 78 0.0 24 15   101.26   -37 LegendNANA

Notes on Data Quality.

Legend

  • E = Estimated
  • M = Missing
  • NA = Not Available*
  • [empty] = Indicates an unobserved value
Date modified: